Location: Disvetro
(44.8667°N, 11.0667°E)
Time: 13:44:43
(UTC+00:00)

Daily predictions for brighter satellites

Satellite Brightness Start Highest point End
(mag) Time Altitude Azimuth Time Altitude Azimuth Time Altitude Azimuth
MOS 1 4.5 18:56:59 10° SSE 19:02:32 60° ENE 19:08:09 10° N
ATLAS 5 CENTAUR R/B 2.7 18:57:41 10° NNW 19:03:09 57° NE 19:09:35 10° SE
MOS 1-B Rocket 4.4 18:55:55 10° NNE 19:03:19 65° E 19:09:35 10° S
MetOp-A 4.5 18:59:00 10° S 19:04:20 73° WSW 19:09:43 10° NNW
DELTA 2 R/B (1) 4.3 19:02:43 10° W 19:07:54 40° SSW 19:13:03 10° SE
Cosmos 1503 Rocket 4.3 19:03:18 10° S 19:08:13 46° ESE 19:13:11 10° NNE
Cosmos 2221 4.0 19:06:51 10° SSW 19:10:57 42° WNW 19:15:05 10° N
Cosmos 1743 Rocket 3.9 19:06:47 10° NNW 19:11:07 68° W 19:15:26 10° S
Cosmos 1844 3.7 19:09:13 10° SSW 19:14:56 82° ESE 19:20:38 10° NNE
BREEZE-M DEB (TANK) 3.6 19:13:38 10° W 19:15:28 21° SSW 19:17:50 10° SSE
Ariane Rocket 3.0 19:12:21 10° SSE 19:17:23 75° ENE 19:22:28 10° N
Cosmos 1833 Rocket 4.0 19:15:40 10° N 19:20:27 27° NE 19:25:12 10° ESE
SL-4 R/B 3.7 19:17:26 10° WNW 19:21:13 29° SW 19:25:10 10° SSE
Resurs 1-3 3.6 19:17:17 10° SSE 19:21:39 73° ENE 19:26:03 10° N
Cosmos 1500 Rocket 4.5 19:17:40 10° NNW 19:21:55 50° W 19:26:07 10° SSW
Cosmos 1745 Rocket 4.0 19:16:57 10° N 19:23:10 77° E 19:29:18 10° SSE
Cosmos 1709 Rocket 4.3 19:19:37 10° N 19:25:31 47° ENE 19:31:23 10° SSE
BREEZE-M DEB (TANK) 3.9 19:25:35 10° WNW 19:29:51 84° SSW 19:38:16 10° ESE
Cosmos 1666 Rocket 3.9 19:26:43 10° N 19:31:00 48° ENE 19:35:00 11° SSE
Cosmos 1437 3.8 19:33:33 16° SE 19:34:51 21° E 19:37:07 10° NE
USA 307 4.4 19:31:04 10° NW 19:34:53 31° NNE 19:38:43 10° E
NOSS 3-3 (A) 3.9 19:32:35 10° SSW 19:38:07 57° ESE 19:44:24 10° NE
NOSS 3-3 (C) 3.9 19:32:42 10° SSW 19:38:15 57° ESE 19:44:31 10° NE
CZ-2C R/B 4.3 19:34:07 10° NNE 19:38:16 35° E 19:42:26 10° SSE
Intercosmos 24 3.7 19:36:59 10° S 19:40:44 82° W 19:44:20 10° N
Cosmos 1354 Rocket 3.9 19:36:06 10° SSW 19:41:18 77° ESE 19:46:34 10° NNE
ATLAS 2AS CENTAUR R/B 4.4 19:36:04 10° NNW 19:42:16 27° NNE 19:48:07 10° E
S3M 4.2 19:36:47 10° S 19:43:11 81° W 19:49:32 10° N
USA 245 4.0 19:43:37 15° E 19:44:01 15° ENE 19:45:29 10° NNE
SJ 16-02 2.9 19:42:36 16° ESE 19:44:12 19° E 19:47:16 10° NE
Sich 1 3.3 19:40:51 10° NNW 19:45:10 70° W 19:49:31 10° S
OBJECT-B 3.1 19:43:18 10° SSW 19:45:58 24° W 19:48:41 10° NW
SPOT 1/Viking Rocket 4.0 19:42:57 15° SE 19:47:02 45° ENE 19:51:58 10° N
Meteor 1-26 Rocket 4.2 19:41:26 10° S 19:47:03 66° E 19:52:33 10° NNE
USA 308 4.2 19:44:39 10° NW 19:48:35 34° NNE 19:52:32 10° E
Cosmos 2315 Rocket 4.1 19:42:38 10° S 19:48:54 62° E 19:55:12 10° NNE
Cosmos 1500 3.7 19:50:34 10° N 19:54:08 40° ENE 19:56:07 22° SE
Terra 3.5 19:54:08 13° E 19:56:41 19° ENE 20:00:02 10° NNE
BREEZE M DEB (TANK) 3.2 19:52:24 10° WNW 19:57:36 42° N 19:59:41 12° ENE
Meteor 1-14 Rocket 4.4 19:54:17 10° N 20:00:05 61° ENE 20:04:21 18° SSE
Cosmos 2082 Rocket 3.4 19:55:28 10° N 20:00:18 28° NE 20:03:59 15° ESE
Cosmos 1151 Rocket 3.0 19:57:12 10° S 20:01:33 84° E 20:05:58 10° N
SPOT 3 Rocket 3.6 19:56:54 13° SSE 20:01:35 85° WSW 20:06:46 10° NNW
OE (NEXTSAT) 4.2 19:58:43 10° WNW 20:02:11 83° SSW 20:04:06 25° ESE
SPOT 5 4.1 19:59:19 18° ESE 20:02:18 31° ENE 20:06:55 10° N
X-37B 1.1 20:00:28 10° W 20:03:33 45° SSW 20:04:43 30° SSE
CREW DRAGON DEMO-1 DEB 4.1 20:01:25 10° NW 20:03:49 29° NNE 20:05:17 17° ENE
Resurs 01 Rocket 1.9 20:02:15 12° S 20:06:18 66° WSW 20:10:43 10° NNW
Cosmos 2084 3.3 20:02:23 10° SW 20:06:31 88° NW 20:10:47 10° NE
COSMOS 2406 3.5 20:01:22 10° NNW 20:06:58 56° ENE 20:10:34 22° SE
USA 290 4.3 20:06:15 10° NW 20:08:54 24° WSW 20:11:32 10° SSW
Cosmos 1538 Rocket 4.3 20:10:33 10° NNW 20:15:49 54° ENE 20:18:46 25° SE
Meteor 2-6 Rocket 4.3 20:12:08 19° SSE 20:15:51 51° E 20:21:11 10° NNE
Cosmos 773 Rocket 4.1 20:13:54 10° NNW 20:19:14 79° WSW 20:22:41 22° SSE
MetOp-B 4.2 20:15:10 17° S 20:19:21 77° WSW 20:24:45 10° NNW
Cosmos 1271 Rocket 3.6 20:19:15 29° ESE 20:20:07 33° E 20:23:43 10° NNE
Cosmos 2278 Rocket 2.1 20:18:53 10° SSW 20:24:28 65° ESE 20:30:05 10° NNE
Spot 2 Rocket 3.5 20:22:06 25° SSE 20:25:01 73° ENE 20:30:03 10° N
Landsat 7 4.4 20:23:02 16° S 20:26:45 55° W 20:31:26 10° NNW
Cosmos 1782 3.7 20:23:08 10° SSW 20:26:59 47° WNW 20:30:52 10° N
BREEZE-M DEB (TANK) 2.8 20:25:15 10° WNW 20:27:09 29° N 20:27:56 22° NE
IGS 5A 4.5 20:24:31 14° SSW 20:27:46 41° W 20:31:43 10° NNW
USA 305 3.4 20:25:02 10° NW 20:29:14 55° NNE 20:31:23 26° E
GPS 2-04 Rocket1 4.3 20:26:25 10° SW 20:28:42 20° SSW 20:28:42 20° SSW
Cosmos 1943 Rocket 4.0 20:32:27 13° E 20:32:27 13° E 20:34:30 10° ENE
Cosmos 1515 Rocket 3.5 20:29:37 24° S 20:32:16 80° E 20:36:41 10° N
ERS-1 Rocket 3.2 20:30:20 30° SE 20:32:39 57° ENE 20:37:35 10° N
BREEZE-M DEB (TANK) 4.0 20:28:26 10° WNW 20:34:32 31° SW 20:35:39 25° SSW
Cosmos 1869 Rocket 4.4 20:34:04 10° N 20:38:00 33° ENE 20:38:55 30° E
CZ-4C R/B 3.0 20:31:21 10° NW 20:38:41 82° SW 20:43:47 27° SSE
Cosmos 1633 Rocket 4.3 20:36:16 10° NNW 20:40:19 37° W 20:43:37 14° SSW
Meteor 1-11 Rocket 4.0 20:39:28 10° N 20:45:23 57° ENE 20:47:54 33° SE
deb Kosmos-1763 3.8 20:43:52 10° NNW 20:47:25 87° WSW 20:47:57 62° SSE
ATLAS 5 CENTAUR R/B 3.7 20:42:36 10° WNW 20:47:43 32° WSW 20:51:47 17° SSW
USA 306 3.0 20:44:20 10° NW 20:48:36 71° NNE 20:49:58 41° ESE
Cosmos 1812 3.2 20:47:19 24° SSW 20:49:26 57° W 20:53:15 10° N
Cosmos 1470 Rocket 4.4 20:48:21 10° NNW 20:52:41 48° W 20:55:00 25° SSW
ARIANE 5 R/B 2.9 20:52:22 34° SSW 20:54:05 61° W 20:58:23 10° NNW
Cosmos 1340 Rocket 4.1 20:51:38 10° NNE 20:55:10 28° ENE 20:55:28 27° E
CARTOSAT-1 3.9 20:56:42 36° SSW 20:58:17 59° W 21:02:34 10° NNW
Cosmos 1666 2.9 20:56:03 10° NNW 20:59:44 63° W 21:00:28 50° SSW
Meteor 2-12 Rocket 4.4 20:56:52 10° N 21:02:57 75° E 21:05:22 38° SSE
Cosmos 1833 Rocket 3.1 20:59:12 10° NW 21:04:42 54° WSW 21:07:04 32° S
SL-24 DEB 4.2 21:05:36 52° SE 21:06:31 66° E 21:11:05 10° N
Cosmos 1933 Rocket 4.1 21:02:44 10° NNW 21:06:57 51° W 21:08:26 34° SSW
BREEZE-M R/B 3.7 21:04:55 10° WNW 21:07:07 29° N 21:07:49 25° NNE
Cosmos 2154 Rocket 4.0 21:00:54 10° N 21:07:14 73° E 21:09:42 39° SSE
Cosmos 1898 Rocket 4.0 21:07:15 40° ESE 21:07:42 41° ESE 21:12:41 10° NE
Cosmos 923 Rocket 4.1 21:03:27 10° NNW 21:08:43 68° ENE 21:10:12 46° SE
Meteor 1-10 Rocket 4.3 21:05:30 25° SSW 21:08:49 76° W 21:14:31 10° N
Cosmos 1536 2.8 21:06:19 10° N 21:10:21 62° E 21:10:33 61° E
Cosmos 2184 Rocket 4.1 21:08:27 10° NNW 21:14:38 70° W 21:17:33 33° SSW
Cosmos 1743 3.7 21:11:09 10° N 21:14:28 35° ENE 21:14:28 35° ENE
USA 307 2.7 21:10:57 10° NW 21:15:15 82° SW 21:15:37 72° SSE
H-2A R/B 3.3 21:13:29 10° NNE 21:17:42 90° WSW 21:18:18 65° SSW
Cosmos 2074 Rocket 4.3 21:12:55 10° NNW 21:19:08 63° W 21:22:14 30° SSW
NOSS 3-4 (A) 3.8 21:13:49 10° NW 21:20:52 82° SW 21:24:06 39° SSE
NOSS 3-4 (C) 3.8 21:13:56 10° NW 21:20:59 82° SW 21:24:12 39° SSE
Cosmos 990 Rocket 3.9 21:20:01 53° SSE 21:21:03 66° ESE 21:26:17 10° NNE
SJ 16-02 2.3 21:19:30 19° SW 21:22:24 45° WNW 21:26:41 10° N
Nadezhda 1 Rocket 3.9 21:19:52 35° S 21:22:46 89° WNW 21:29:03 10° N
Cosmos 2297 3.9 21:22:45 47° SE 21:23:25 49° ESE 21:28:53 10° NE
Cosmos 1733 Rocket 3.9 21:23:50 10° N 21:27:49 36° ENE 21:27:49 36° ENE
USA 308 2.9 21:24:34 10° WNW 21:28:43 66° SW 21:28:43 66° SW
Terra 2.2 21:33:01 45° SW 21:34:02 55° W 21:38:43 10° NNW
ATLAS 2AS CENTAUR R/B 2.8 21:27:04 10° NW 21:34:28 77° NE 21:37:05 42° SE
Cosmos 1544 3.4 21:34:00 10° N 21:37:03 61° NNW 21:37:03 61° NNW
SPOT 5 4.1 21:38:33 29° SW 21:40:14 37° W 21:45:06 10° NNW
ERBS 4.4 21:40:16 10° NNW 21:42:57 22° NNE 21:43:15 22° NE
Cosmos 2082 Rocket 2.6 21:39:14 10° NW 21:44:38 50° WSW 21:45:50 43° SSW
Cosmos 2181 Rocket 4.2 21:44:37 47° ESE 21:45:38 52° E 21:51:34 10° NNE
Cosmos 2228 Rocket 4.2 21:45:34 31° WSW 21:46:55 39° WNW 21:51:08 10° N
Cosmos 2112 Rocket 3.9 21:42:01 10° NNW 21:47:25 87° WSW 21:48:11 66° SSE
Cosmos 967 Rocket 4.3 21:49:30 50° S 21:51:13 75° ESE 21:57:31 10° NE
Cosmos 44 3.4 21:45:48 10° NNW 21:51:15 79° NE 21:51:59 65° ESE
Cosmos 2366 rocket 4.2 21:48:36 10° N 21:54:41 56° ENE 21:55:56 48° ESE
Spot 4 4.1 21:55:19 53° E 21:55:38 54° ENE 22:00:23 10° N
Cosmos 2084 Rocket 3.8 21:55:02 10° NNW 21:59:14 59° NE 21:59:14 59° NE
Cosmos 2341 Rocket 4.0 21:56:11 10° N 22:02:37 84° W 22:04:08 55° S
Cosmos 1515 4.4 22:04:29 51° N 22:04:29 51° N 22:07:24 10° N
Cosmos 2278 Rocket 4.3 22:04:34 10° W 22:09:02 23° NW 22:13:33 10° N
Cosmos 1937 Rocket 3.4 22:09:31 70° SW 22:10:03 80° WNW 22:15:16 10° NNE
Cosmos 1862 Rocket 3.7 22:10:39 67° NNE 22:10:39 67° NNE 22:14:27 10° N
Cosmos 489 Rocket 4.5 22:05:48 10° NNW 22:12:03 74° ENE 22:13:17 58° SE
SL-24 R/B - RUBIN 2 3.9 22:07:49 10° NW 22:13:07 70° WSW 22:13:07 70° WSW
Cosmos 1680 Rocket 4.1 22:09:24 10° NNW 22:14:26 44° WSW 22:14:52 43° WSW
Cosmos 1943 Rocket 2.1 22:13:55 67° SSW 22:14:44 88° WNW 22:20:22 10° NNE
Cosmos 2369 Rocket 2.4 22:17:10 52° E 22:17:10 52° E 22:22:22 10° NE
Cosmos 2218 Rocket 3.9 22:10:47 10° N 22:17:07 84° E 22:18:16 62° SSE
Meteor 1-19 Rocket 3.9 22:19:24 77° SSW 22:19:49 89° W 22:25:15 10° N
Centaur D AC-29 4.4 21:48:27 10° WSW 22:20:13 29° SSW 22:20:13 29° SSW
Gbstr 26 Del rocket 4.1 22:14:13 10° WNW 22:21:33 76° NNE 22:23:48 42° ESE
Cosmos 1238 Rocket 3.7 22:18:29 10° NNW 22:24:35 66° W 22:25:13 61° SW
COBE Rocket 4.5 22:24:30 47° E 22:24:47 48° ENE 22:29:43 10° N
Cosmos 1607 4.4 22:26:50 45° ESE 22:26:50 45° ESE 22:32:45 10° NE
Meteor 2-9 Rocket 4.1 22:22:15 10° NNW 22:28:03 78° W 22:28:36 70° SSW
Okean 1 4.3 22:29:36 44° NW 22:29:36 44° NW 22:32:53 10° N
Okean 1-7 4.1 22:31:00 36° NE 22:31:00 36° NE 22:34:01 10° NNE
Thor Agena Rocket 4.5 22:28:45 10° NNE 22:33:11 36° E 22:33:11 36° E
Cosmos 1818 3.5 22:28:44 10° NW 22:34:12 73° WSW 22:34:12 73° WSW
Cosmos 1656 Rocket 4.2 22:35:34 44° E 22:35:34 44° E 22:40:12 10° NE
Nadezhda 3 Rocket 4.4 22:35:11 45° ESE 22:35:50 47° E 22:41:44 10° NNE
DNEPR-1 R/B 4.4 22:34:46 42° WSW 22:36:30 62° NW 22:41:27 10° NNE
SL-8 Rocket 4.3 22:34:13 10° NNW 22:40:23 56° W 22:41:32 49° SW
ALOS 2 2.9 22:41:06 65° N 22:41:06 65° N 22:44:54 10° NNW
Cosmos 2263 4.3 22:43:18 62° ESE 22:43:18 62° ESE 22:48:57 10° NNE
Meteor 2-4 Rocket 3.6 22:47:05 78° S 22:47:29 90° WNW 22:53:10 10° N
SL-08 R/B 4.3 22:51:26 10° N 22:57:40 85° W 22:58:29 70° S
BREEZE-M DEB (TANK) 3.8 22:44:21 10° WNW 22:57:52 88° SSW 22:58:40 66° ESE
Cosmos 1975 4.3 22:57:54 10° NNW 23:00:28 30° NW 23:00:28 30° NW
Cosmos 2150 Rocket 4.0 23:04:29 73° E 23:04:29 73° E 23:09:35 10° NNE
RESURS DK-1 3.2 23:00:17 10° NNW 23:03:31 49° N 23:03:31 49° N
Cosmos 1461 4.0 23:07:22 44° WNW 23:07:48 45° NW 23:12:15 10° NNE
Cosmos 2242 Rocket 4.1 23:09:01 55° NW 23:09:01 55° NW 23:12:49 10° N
Cosmos 1833 4.2 23:03:02 10° NNW 23:08:50 78° ENE 23:09:22 71° ESE
SeaSat 1 3.1 23:04:32 10° NE 23:08:32 44° E 23:08:32 44° E
Meteor 1-12 Rocket 4.2 23:06:20 10° N 23:12:15 79° E 23:12:43 73° SE
Cosmos 2239 Rocket 4.4 23:06:20 10° N 23:12:40 80° E 23:13:34 66° SSE
ISS -1.1 23:18:16 17° NE 23:18:16 17° NE 23:19:18 10° NE
USA 215 3.4 23:13:57 26° ESE 23:17:54 72° NNE 23:24:25 10° NW
Cosmos 468 4.5 23:13:27 10° NNW 23:18:27 73° WNW 23:18:27 73° WNW
Cosmos 494 Rocket 3.9 23:15:01 10° NNW 23:20:07 83° NNE 23:20:07 83° NNE
Cosmos 1300 Rocket 4.3 23:17:55 10° N 23:21:41 48° NE 23:21:41 48° NE
Okean 2 Rocket 4.0 23:20:07 10° N 23:23:56 42° ENE 23:23:56 42° ENE
ATLAS 2AS CENTAUR R/B 4.0 23:19:10 10° WNW 23:24:29 24° WSW 23:24:29 24° WSW
Nimbus 7 Rocket 4.5 23:19:53 10° N 23:25:43 67° WNW 23:26:37 59° WSW
Cosmos 1867 3.6 23:25:56 67° W 23:26:24 71° NW 23:31:53 10° NNE
Cosmos 1125 Rocket 3.4 23:26:49 86° NNE 23:26:49 86° NNE 23:31:58 10° NNE
Cosmos 44 Rocket 4.0 23:25:15 10° NNW 23:30:24 54° NE 23:31:24 46° E
ATLAS CENTAUR R/B 2.6 23:38:29 36° NNE 23:38:29 36° NNE 23:40:53 10° NNE
Cosmos 1821 Rocket 4.3 23:34:26 10° NNW 23:40:39 54° W 23:41:25 51° WSW
Cosmos 2344 4.3 23:31:31 10° NW 23:40:58 89° ENE 23:51:07 19° SE
Cosmos 1934 Rocket 3.8 23:35:12 10° N 23:41:22 89° ENE 23:42:09 70° S
USA 281 4.2 23:36:59 18° ESE 23:41:24 42° NE 23:47:30 10° NNW
Cosmos 1726 4.5 23:40:54 10° NNE 23:43:23 17° ENE 23:43:26 17° ENE
Okean 3 4.4 23:50:46 41° NW 23:50:46 41° NW 23:54:10 10° N
USA 81 4.1 23:44:55 10° N 23:50:12 65° E 23:50:37 63° ESE
Lacrosse 5 2.6 23:54:51 43° E 23:54:51 43° E 23:58:49 10° ENE
